Regional Weather Roundup
Issued by NWS

Home | Current Version | Previous Version | Text Only | Print | Product List | Glossary On
Versions: 1 2 3 4 5 6 7 8 9 10 11 12 13 14 15 16 17 18 19 20 21 22 23 24 25 26 27 28
000
ASUS46 KPQR 202310
RWROR

OREGON REGIONAL WEATHER ROUNDUP
NATIONAL WEATHER SERVICE PORTLAND OR
400 PM PDT FRI APR 20 2018

NOTE: "FAIR" INDICATES FEW OR NO CLOUDS BELOW 12,000 FEET WITH
NO SIGNIFICANT WEATHER AND/OR OBSTRUCTIONS TO VISIBILITY.

ORZ001>013-210000-
NORTHWEST OREGON


CITY           SKY/WX    TMP DP  RH WIND       PRES   REMARKS
ASTORIA        CLOUDY    52  41  66 W12       30.21S
TILLAMOOK      CLOUDY    54  41  62 W7        30.24S
NEWPORT        PTSUNNY   54  45  71 SW7       30.28S
PORTLAND       CLOUDY    65  38  36 N3        30.18F
VANCOUVER WA   CLOUDY    65  39  38 CALM      30.18F
SCAPPOOSE      CLOUDY    64  38  38 SE5       30.18F
HILLSBORO      PTSUNNY   63  42  46 VRB5      30.18F
AURORA         MOSUNNY   65  42  43 CALM      30.20F
MCMINNVILLE    MOSUNNY   62  42  47 S3        30.18F
SALEM          MOSUNNY   65  34  31 SW7       30.17F
CORVALLIS      PTSUNNY   65  49  56 S7        30.19F
EUGENE         PTSUNNY   65  46  50 NE3       30.19F
$$

ORZ021-028-210000-
SOUTHWEST OREGON


CITY           SKY/WX    TMP DP  RH WIND       PRES   REMARKS
NORTH BEND     PTSUNNY   53  44  71 VRB3      30.29S
BROOKINGS      PTSUNNY   55  47  74 W8        30.26F
ROSEBURG       CLOUDY    68  45  43 W7        30.19F
SEXTON SUMMIT  CLOUDY    58  37  45 N3        30.22F
GRANTS PASS    FAIR      72  39  30 CALM      30.18F
MEDFORD        PTSUNNY   71  36  27 CALM      30.16F
$$

ORZ014>016-041-210000-
COLUMBIA GORGE


CITY           SKY/WX    TMP DP  RH WIND       PRES   REMARKS
TROUTDALE      PTSUNNY   67  37  33 VRB5      30.18F
HOOD RIVER     PTSUNNY   66  32  28 W18G24    30.13F
THE DALLES     MOSUNNY   71  31  22 CALM      30.11F
$$

ORZ029>031-041-044-049-050-061>064-502-503-505>511-210000-
EASTERN OREGON


CITY           SKY/WX    TMP DP  RH WIND       PRES   REMARKS
MADRAS         MOSUNNY   66  28  24 E6        30.15F
REDMOND        SUNNY     68  29  23 CALM      30.13F
BEND           SUNNY     68  23  18 N7        30.13F
PRINEVILLE     SUNNY     66  27  22 N8        30.14F
KLAMATH FALLS  SUNNY     64  33  31 VRB3      30.18F
LAKEVIEW       SUNNY     61  33  35 SE10      30.20F
HERMISTON      SUNNY     71  31  22 VRB3      30.12F
PENDLETON      SUNNY     67  31  26 VRB6      30.14F
JOHN DAY       SUNNY     64  29  26 W5        30.16F
MEACHAM        SUNNY     58  28  32 VRB3      30.17F
LA GRANDE      SUNNY     65  32  29 NW6       30.13F
BAKER CITY     SUNNY     67  25  20 NW10      30.13F
BURNS          SUNNY     64  26  23 W5G16     30.15F
ROME             N/A     68  14  12 S9        30.13F
ONTARIO        SUNNY     73  25  16 NW16      30.09F
$$




USA.gov is the U.S. government's official web portal to all federal, state and local government web resources and services.